Simultaneous Nadir Overpasses (SNOs) Predictions

Prediction of SNOs between GOES-16 and METOP-C Satellite Orbit:

Table of predicted SNOs for the next 14.0 days since TLE Epoch: 5/28/2022
Index Date Time (GOES-16) GOES-16 Lat,Lon METOP-C Lat,Lon Distance(km) Time Diff (sec)
1 05/29/2022 14:39:03 0.05, -75.20 0.49, -77.24 232.62 80
2 05/30/2022 14:21:03 0.05, -75.20 -0.62, -72.24 337.01 80
3 06/01/2022 02:37:22 -0.04, -75.19 -0.43, -76.83 188.00 80
4 06/02/2022 02:16:42 -0.04, -75.19 0.69, -71.84 381.84 80
5 06/03/2022 14:35:31 0.03, -75.21 0.30, -76.40 134.71 80
6 06/04/2022 14:17:30 0.03, -75.22 -0.82, -71.40 435.49 80
7 06/06/2022 02:36:30 -0.02, -75.22 -0.22, -75.99 88.32 80
8 06/07/2022 02:13:09 -0.02, -75.23 0.90, -71.00 482.35 80
9 06/08/2022 14:31:59 0.02, -75.26 0.08, -75.55 32.92 80
10 06/11/2022 02:30:17 -0.02, -75.29 0.02, -75.15 15.49 80
